軌道要素
Epoch 2018 Mar. 23.0 TT = JDT 2458200.5
T 2018 Mar. 14.23810 TT Rudenko
q 7.2856045 (2000.0) P Q
z -0.0003373 Peri. 4.16496 -0.74396666 -0.59020417
+/-0.0000014 Node 225.64224 -0.62504127 +0.44883848
e 1.0024572 Incl. 154.00937 -0.23629856 +0.67097173
From 124 observations 2015 Sept. 1-2019 May 27, mean residual 0".6.
|